Temperature
25 23 23 23 24 24 24 24 24 24 24 23 22 22 22 22 21 21 21 21 21 21 21 21 21 21 21 21 20 20 20 20 20 20 20 19 19 19 19 19 19 19 19 19
23 23 24 24 24 24 24 24 24 24 24 23 22 21 22 21 21 21 21 21 21 21 21 21 21 21 21 21 21 20 20 20 20 20 20 19 19 19 19 19 19 19 19 19
24 24 25 25 25 25 24 24 24 24 23 23 22 22 21 21 21 21 21 21 21 21 21 21 21 21 21 21 21 20 20 20 20 20 19 19 19 19 19 19 19 19 19 19
24 24 25 25 25 25 24 25 25 24 22 21 22 21 21 20 20 20 20 20 20 21 21 21 21 21 21 21 20 20 20 20 20 19 19 19 19 19 19 19 19 19 18 18
24 25 25 25 26 25 25 25 24 23 22 21 21 21 20 20 20 20 20 20 20 21 21 21 21 21 21 21 20 20 20 20 20 19 19 19 19 19 19 19 19 19 18 18
24 25 25 25 26 25 25 23 22 20 20 21 21 21 21 19 20 20 20 20 20 20 21 21 21 20 20 21 20 20 20 20 20 19 19 19 19 19 19 19 18 18 18 18
24 25 25 26 25 25 24 22 21 22 20 21 20 21 20 20 20 20 20 20 20 20 20 21 20 20 20 20 20 20 20 20 19 19 19 19 19 18 18 18 18 18 18 18
24 23 25 25 25 24 23 22 21 22 21 20 20 20 21 21 21 21 20 20 20 20 20 21 21 21 21 20 20 20 20 20 19 19 19 19 18 18 18 18 18 18 18 18
22 23 25 25 25 24 23 21 21 19 20 20 20 20 21 20 20 20 20 20 20 20 20 20 20 20 20 20 20 20 20 20 19 19 19 19 18 18 18 18 18 18 18 18
22 24 25 24 25 24 23 20 18 19 20 21 22 21 20 20 19 19 19 19 20 20 20 20 20 20 20 20 20 19 19 19 19 19 18 18 18 18 18 18 18 18 18 17
22 23 24 24 24 24 23 21 18 17 18 20 21 21 21 20 19 19 19 19 20 20 20 20 20 20 20 19 19 19 19 19 19 19 18 18 18 17 17 17 17 17 17 17
20 19 21 23 23 23 23 21 19 21 19 18 19 20 21 19 19 19 19 19 19 20 20 20 20 19 19 19 19 19 19 19 19 18 18 18 18 17 17 17 17 17 17 17
20 20 21 22 22 22 22 21 19 17 17 17 19 21 20 19 19 19 19 19 19 19 19 19 19 19 19 19 19 19 18 18 18 18 18 18 17 17 17 17 17 17 17 17
20 19 20 22 21 22 22 22 20 19 18 18 19 20 20 19 18 18 19 19 19 19 19 19 19 19 19 19 18 18 18 18 18 17 17 17 17 17 17 17 17 16 16 16
19 20 20 20 21 22 22 22 21 20 19 19 20 20 20 19 18 18 19 19 18 18 19 19 19 19 19 18 18 18 18 18 17 17 17 17 17 16 16 16 16 16 16 16
17 19 20 21 21 21 21 21 21 20 20 20 20 20 19 19 19 18 18 18 18 18 18 18 19 19 19 18 18 18 18 17 17 17 17 17 16 16 16 16 16 16 15 15
16 18 19 19 20 21 21 21 20 20 20 19 20 20 18 18 17 18 18 18 18 18 19 19 19 19 19 18 18 18 18 18 17 17 17 16 16 16 16 16 15 15 15 15
16 16 15 17 20 21 20 20 20 19 19 18 19 18 18 18 18 18 18 18 18 18 19 19 19 19 19 18 18 18 17 17 17 16 16 16 16 15 15 15 15 15 15 15
15 15 15 16 18 19 20 20 19 19 19 18 18 18 17 18 18 17 18 18 19 19 19 19 19 18 18 18 18 17 17 17 16 16 16 16 15 15 15 15 15 15 15 14
14 14 15 15 18 19 20 20 19 19 19 18 17 17 17 17 17 17 18 18 18 18 19 18 18 18 18 18 17 17 17 17 16 16 16 16 15 15 15 15 15 14 14 14
16 15 15 16 17 18 18 18 20 20 19 18 18 17 17 17 18 19 19 18 18 18 18 18 18 17 17 17 17 17 17 16 16 16 16 15 15 15 15 15 15 14 14 14
15 15 15 14 17 18 18 18 18 18 18 18 18 18 18 18 18 18 19 18 18 18 17 17 17 17 17 17 17 17 16 16 16 15 15 15 15 15 14 14 14 14 14 14
14 14 14 14 16 16 16 17 19 19 18 18 18 18 18 18 18 18 18 18 17 17 17 17 17 17 16 16 16 16 16 15 15 15 15 15 15 14 14 14 14 14 13 13
14 13 13 14 15 15 17 17 18 18 18 19 19 19 18 18 18 17 17 17 17 17 17 16 16 16 16 16 15 15 15 15 15 15 15 14 14 14 14 13 13 13 13 13
14 13 13 14 14 15 16 17 17 18 18 18 18 18 18 18 17 17 17 17 17 16 16 16 16 16 15 15 15 15 15 14 14 14 14 14 14 14 13 13 13 13 13 12
13 13 14 14 15 14 16 17 17 17 17 17 17 17 17 17 17 16 16 16 16 16 16 16 15 15 15 14 14 14 14 14 14 14 13 13 13 13 13 13 13 12 12 12
Wind_Speed
3 4 2 5 6 5 4 3 2 3 2 3 3 2 2 3 5 5 4 4 4 4 2 2 3 4 4 3 3 3 3 2 3 2 2 2 1 1 2 2 3 3 3 3
4 3 6 4 4 5 4 2 1 1 2 3 2 1 1 3 5 6 7 6 5 3 2 3 3 4 4 3 2 2 3 3 2 2 2 2 2 1 1 1 3 3 2 2
5 5 3 4 4 4 3 5 4 2 2 3 3 3 2 1 1 2 4 4 4 6 5 4 4 4 4 3 3 3 2 3 2 3 3 3 3 3 3 3 2 2 2 2
4 4 3 3 3 4 3 4 5 4 3 1 1 2 4 2 2 3 4 5 5 5 5 4 4 4 4 3 3 2 2 2 2 3 3 4 3 1 0 0 1 2 2 2
4 3 3 4 5 5 4 2 4 3 4 2 2 1 6 0 3 5 5 5 5 5 6 5 5 5 4 4 4 3 3 2 2 3 4 4 3 1 1 1 2 2 2 2
4 3 4 5 1 4 5 7 7 6 5 1 2 3 6 4 6 5 5 5 5 5 5 5 4 4 4 3 3 3 3 2 2 3 3 4 4 3 2 1 1 1 1 2
4 3 3 3 3 2 5 6 4 4 3 4 2 2 7 6 5 6 7 6 6 6 5 5 5 5 5 4 4 3 4 2 2 3 3 3 3 3 3 2 1 0 1 1
2 5 4 3 6 6 5 8 7 5 5 4 2 4 6 4 2 3 4 5 5 5 5 5 6 6 5 5 4 4 4 3 2 2 2 2 2 2 1 2 1 1 1 1
6 5 4 2 2 8 6 4 6 6 2 0 4 5 6 1 1 2 3 4 5 5 5 5 5 5 5 5 4 4 4 3 2 2 2 1 1 1 1 1 1 1 0 0
8 3 4 2 5 4 5 8 6 6 5 2 4 4 5 5 5 4 4 5 5 4 4 4 4 4 4 4 3 3 4 3 2 2 2 1 1 1 1 1 1 1 0 1
6 5 3 2 3 4 4 5 6 5 5 6 3 6 5 8 8 8 7 5 5 5 5 5 4 3 3 3 4 4 3 3 2 2 2 1 1 1 1 1 0 0 0 1
4 5 2 4 3 2 4 6 7 5 3 4 4 7 4 5 5 6 6 5 4 5 5 4 4 3 3 3 3 4 4 3 3 3 2 2 2 2 1 0 0 0 0 0
6 6 2 5 5 3 3 3 4 6 5 5 5 7 2 0 3 4 5 5 5 5 4 4 3 3 3 3 3 3 3 3 3 3 3 2 2 2 1 1 0 1 1 1
6 5 6 8 7 4 2 3 5 6 5 5 7 7 4 2 4 4 4 5 6 6 5 4 3 3 3 3 3 3 3 3 3 3 3 2 2 2 1 1 0 0 1 1
5 4 3 3 3 3 3 4 5 6 8 8 8 7 8 7 7 6 5 6 6 5 5 5 5 4 4 4 4 3 3 3 3 3 3 3 2 1 1 1 1 1 1 1
4 4 2 1 1 2 2 2 5 4 4 5 4 6 5 3 4 4 5 6 6 6 6 6 5 5 4 5 5 4 4 3 3 3 3 3 2 2 2 2 1 1 1 0
2 5 4 2 3 2 3 4 5 3 3 6 7 7 3 3 5 6 6 6 7 6 6 6 6 6 5 4 5 5 4 3 3 3 3 3 3 2 2 2 1 1 1 1
6 5 4 2 1 4 7 2 5 4 2 3 4 3 4 5 4 3 3 5 5 5 5 5 4 4 3 3 4 4 4 3 3 3 3 3 3 3 2 2 2 2 1 1
4 7 5 4 3 4 5 1 3 4 3 3 3 2 3 4 3 2 1 3 4 4 4 4 4 3 3 3 3 3 4 4 4 4 4 4 4 4 3 3 3 2 2 2
6 5 6 4 4 6 6 2 2 4 2 2 2 4 4 5 2 4 3 2 2 2 2 2 2 2 2 2 3 3 4 4 5 5 5 4 4 4 4 4 3 2 2 2
3 4 4 4 4 6 5 3 2 3 5 2 3 3 5 5 5 3 2 2 2 2 2 2 3 2 2 2 3 3 2 4 5 3 3 3 4 4 4 3 2 2 2 2
4 3 3 4 3 6 2 2 4 5 2 1 2 3 5 4 2 2 3 3 3 3 2 3 3 2 0 1 3 2 2 3 2 2 2 3 3 3 3 3 3 2 2 2
3 5 5 6 6 4 2 3 2 2 1 2 3 3 5 4 3 2 2 3 3 3 3 2 3 2 1 1 2 1 2 2 1 1 3 3 2 2 3 3 3 2 2 2
1 2 2 1 4 4 2 2 2 1 1 2 3 3 4 4 4 4 3 3 3 3 2 2 3 2 1 1 0 1 1 1 0 2 3 2 2 2 2 2 3 3 3 3
3 2 1 2 4 3 3 2 1 2 2 2 1 1 3 5 4 4 3 3 3 3 2 2 3 2 1 1 0 1 1 1 1 1 2 2 2 2 2 2 3 4 4 5
3 5 5 5 6 4 4 3 1 0 0 2 2 2 2 3 4 3 3 2 3 3 2 2 2 1 1 1 0 1 1 0 1 1 2 2 1 1 1 1 2 2 3 4
Wind_Direction
64 83 197 213 193 185 167 173 232 250 198 137 173 200 200 182 177 178 171 177 192 202 190 150 142 132 121 114 115 125 117 104 97 89 93 82 65 38 36 42 50 53 65 77
49 256 229 195 170 154 159 163 231 329 105 143 157 230 215 197 199 186 181 187 193 177 157 154 145 136 137 138 132 131 127 121 122 120 121 122 108 77 55 33 41 39 55 77
192 234 187 152 157 150 189 188 195 180 80 68 98 345 284 261 203 172 175 184 186 185 186 175 162 153 143 141 152 168 156 141 131 112 94 82 63 45 37 29 23 14 39 72
223 238 175 166 201 167 243 217 177 157 122 292 115 266 278 245 244 210 197 193 196 193 184 177 168 162 158 160 150 150 152 140 130 122 117 118 115 109 290 345 3 7 32 57
236 198 178 213 223 177 207 131 119 117 122 65 28 152 287 296 238 235 214 198 194 187 177 179 181 172 165 154 146 144 142 138 134 133 137 129 119 134 85 54 41 18 12 27
242 232 201 208 187 150 126 74 61 51 69 351 261 176 277 236 226 224 207 194 188 182 174 173 158 146 153 149 144 143 141 144 138 138 143 146 150 150 122 83 50 11 7 9
314 295 250 161 100 67 101 93 43 3 7 257 274 196 253 254 228 208 199 195 187 179 172 169 162 161 162 160 161 155 154 161 146 147 167 170 173 170 175 183 180 157 357 342
201 278 246 192 177 176 164 141 158 195 217 267 313 242 261 275 243 193 178 176 168 165 166 172 176 172 170 172 165 163 168 173 157 158 176 172 172 176 203 205 179 180 223 262
182 248 282 239 176 141 137 154 157 132 134 242 280 285 301 3 47 140 148 156 170 170 165 161 163 166 172 176 173 175 171 172 173 177 176 163 163 173 195 201 158 171 263 268
159 209 282 285 78 42 127 140 105 119 146 228 285 276 254 241 218 201 190 186 177 167 157 154 161 165 174 172 166 163 167 175 169 154 160 146 148 162 171 149 166 164 167 30
147 164 296 43 145 171 106 94 104 111 144 157 230 266 234 215 201 194 200 192 173 166 168 168 168 161 156 149 150 149 151 144 139 145 136 118 124 124 116 146 197 225 33 66
144 130 216 269 287 188 143 151 146 149 192 169 178 262 286 220 198 189 189 179 168 164 161 158 152 147 140 138 148 152 150 158 173 168 152 151 149 134 125 190 242 148 103 96
136 118 89 345 346 16 88 130 138 125 121 154 174 259 321 134 176 182 180 177 160 153 146 140 141 156 164 160 155 143 149 163 171 159 157 151 149 155 165 228 251 158 139 92
118 115 161 194 215 204 191 172 160 134 149 189 215 241 276 240 201 189 182 176 164 161 158 159 172 185 187 178 164 152 158 161 160 159 165 158 176 180 184 185 160 174 148 140
104 135 177 220 229 181 188 195 180 180 184 185 218 222 243 220 201 189 176 161 157 163 168 178 187 192 190 182 174 171 174 177 176 173 171 183 187 180 164 155 154 141 165 195
80 132 132 308 309 175 191 219 183 189 184 197 199 243 243 192 151 154 164 168 178 190 191 192 191 190 194 192 189 190 192 190 175 176 199 197 182 176 184 187 176 162 175 160
103 124 121 238 298 47 270 239 193 186 195 178 202 225 183 161 175 178 182 185 194 199 199 198 198 196 200 201 197 203 207 186 175 192 204 198 195 201 206 196 177 189 197 185
135 118 129 151 94 225 247 253 171 167 219 214 211 212 180 179 173 164 169 185 197 200 193 194 196 198 205 202 198 197 191 181 178 197 212 206 200 205 200 186 201 217 202 195
143 136 124 131 178 264 289 230 166 162 264 223 194 166 132 119 71 2 222 192 198 196 196 197 193 193 189 193 192 181 183 186 192 203 211 211 204 204 197 201 211 218 198 207
63 96 118 130 163 224 245 277 199 125 279 281 172 166 155 128 147 252 234 191 179 166 164 170 160 149 168 193 176 171 193 199 216 217 216 210 204 205 213 211 210 220 206 216
48 60 117 151 197 252 264 295 99 157 242 265 174 167 165 178 200 208 172 165 155 147 143 137 130 140 180 179 153 170 208 230 239 230 215 212 211 209 214 211 207 204 208 211
167 148 167 147 178 248 283 113 172 217 248 176 160 164 167 173 154 135 147 157 146 134 124 127 130 134 174 151 148 176 244 257 247 227 222 221 224 221 212 206 215 204 194 211
181 186 183 187 211 257 259 220 243 167 165 195 172 176 170 164 163 156 159 154 145 138 139 135 136 126 68 88 130 166 272 291 241 212 226 228 227 222 213 205 214 216 201 210
266 133 132 253 284 299 305 349 1 12 195 193 174 170 165 165 164 159 155 148 136 134 143 141 133 127 91 359 82 214 298 329 333 243 245 226 215 229 235 219 214 218 221 223
223 144 118 270 284 331 330 326 339 358 56 96 94 134 153 146 151 158 159 160 158 155 150 146 157 165 192 226 292 334 356 52 23 314 274 249 231 227 242 248 241 234 232 222
209 178 175 224 227 205 255 279 307 14 78 122 118 83 96 132 146 143 153 170 160 160 142 136 155 169 200 217 296 319 310 161 137 331 318 267 239 226 224 259 305 307 261 246
Height
1491 1497 1503 1500 1499 1500 1503 1508 1511 1507 1501 1505 1508 1509 1506 1505 1506 1507 1509 1510 1511 1513 1515 1516 1517 1518 1519 1520 1521 1521 1522 1523 1524 1524 1525 1525 1526 1526 1526 1526 1526 1526 1527 1527
1497 1500 1493 1492 1494 1497 1502 1508 1509 1505 1500 1504 1510 1510 1506 1505 1505 1506 1507 1509 1510 1512 1514 1515 1516 1518 1519 1520 1521 1522 1522 1523 1524 1525 1525 1526 1526 1527 1527 1527 1527 1527 1527 1528
1497 1494 1489 1492 1495 1499 1501 1505 1506 1507 1504 1505 1509 1514 1509 1505 1505 1506 1507 1509 1510 1511 1512 1514 1515 1517 1518 1520 1521 1522 1522 1523 1524 1525 1526 1526 1527 1527 1527 1527 1528 1528 1528 1528
1493 1489 1489 1492 1495 1496 1504 1496 1498 1502 1512 1519 1514 1528 1513 1508 1507 1505 1506 1507 1508 1510 1511 1512 1514 1515 1517 1519 1520 1521 1522 1523 1524 1525 1526 1526 1527 1527 1527 1528 1528 1528 1528 1528
1492 1488 1489 1493 1491 1491 1496 1492 1497 1503 1512 1520 1519 1527 1520 1510 1509 1506 1504 1505 1507 1508 1509 1511 1512 1514 1516 1518 1520 1521 1522 1523 1524 1524 1525 1526 1526 1527 1527 1528 1528 1528 1528 1528
1488 1485 1485 1486 1485 1487 1491 1498 1504 1512 1520 1532 1524 1527 1524 1513 1506 1502 1502 1503 1505 1506 1508 1509 1511 1514 1515 1517 1519 1520 1521 1522 1523 1524 1525 1525 1526 1526 1527 1527 1527 1527 1528 1528
1492 1487 1483 1482 1488 1490 1494 1511 1530 1533 1540 1536 1522 1524 1520 1502 1498 1498 1499 1500 1502 1504 1506 1508 1510 1512 1513 1515 1517 1519 1520 1521 1522 1523 1524 1525 1525 1526 1526 1526 1526 1527 1527 1527
1502 1502 1485 1481 1485 1493 1497 1506 1529 1539 1542 1535 1524 1525 1509 1497 1495 1495 1497 1499 1501 1503 1505 1507 1508 1510 1512 1514 1516 1518 1519 1520 1521 1522 1523 1524 1525 1525 1525 1525 1525 1526 1526 1526
1501 1499 1482 1479 1479 1484 1497 1505 1506 1525 1530 1535 1528 1518 1503 1495 1495 1495 1497 1498 1500 1502 1504 1506 1508 1509 1511 1513 1514 1516 1518 1519 1520 1521 1522 1522 1523 1524 1524 1524 1524 1524 1524 1524
1487 1495 1484 1480 1480 1484 1488 1499 1513 1525 1537 1539 1528 1521 1515 1501 1498 1496 1496 1497 1498 1501 1503 1505 1507 1508 1510 1512 1513 1515 1517 1517 1518 1519 1520 1521 1521 1522 1522 1523 1523 1523 1523 1523
1482 1493 1491 1485 1487 1491 1494 1501 1512 1523 1525 1537 1537 1524 1496 1494 1492 1493 1494 1495 1497 1499 1501 1504 1506 1508 1509 1511 1512 1513 1515 1516 1517 1518 1519 1520 1520 1520 1521 1521 1521 1521 1520 1521
1482 1493 1501 1492 1484 1482 1485 1493 1505 1516 1524 1528 1531 1521 1489 1489 1489 1490 1492 1494 1497 1498 1501 1503 1505 1507 1508 1509 1510 1511 1513 1514 1515 1516 1517 1518 1518 1518 1519 1519 1519 1519 1518 1519
1481 1494 1507 1505 1499 1490 1490 1493 1498 1507 1520 1528 1528 1514 1489 1488 1489 1490 1491 1493 1496 1498 1500 1503 1504 1505 1507 1508 1509 1509 1511 1512 1514 1515 1516 1516 1516 1517 1517 1517 1517 1517 1517 1517
1475 1491 1500 1507 1502 1492 1492 1492 1496 1502 1516 1521 1515 1504 1492 1490 1489 1490 1491 1493 1495 1497 1499 1501 1503 1504 1506 1507 1508 1508 1509 1511 1512 1513 1513 1513 1514 1514 1515 1515 1515 1515 1515 1515
1475 1489 1489 1489 1485 1486 1487 1488 1491 1495 1499 1505 1500 1498 1490 1487 1487 1488 1490 1492 1494 1496 1498 1500 1501 1503 1504 1505 1506 1507 1507 1508 1510 1510 1511 1511 1512 1512 1513 1513 1513 1513 1513 1513
1478 1487 1489 1490 1486 1485 1488 1486 1487 1490 1491 1493 1492 1492 1483 1484 1486 1488 1489 1490 1492 1493 1495 1497 1499 1501 1502 1503 1504 1505 1505 1506 1507 1508 1508 1509 1510 1510 1510 1511 1511 1511 1511 1511
1483 1488 1495 1499 1491 1487 1495 1487 1486 1487 1486 1487 1491 1486 1482 1484 1485 1486 1487 1488 1489 1490 1492 1494 1496 1497 1499 1501 1502 1502 1503 1504 1505 1506 1506 1507 1507 1508 1508 1508 1508 1508 1508 1508
1482 1490 1499 1502 1496 1505 1491 1479 1479 1482 1482 1481 1481 1480 1480 1481 1483 1484 1485 1486 1487 1489 1490 1492 1494 1496 1497 1499 1500 1501 1501 1502 1502 1503 1503 1504 1504 1505 1505 1505 1505 1506 1505 1505
1477 1486 1499 1506 1506 1499 1486 1479 1479 1482 1483 1479 1480 1480 1481 1481 1483 1484 1485 1485 1486 1487 1489 1491 1493 1494 1496 1497 1497 1498 1499 1499 1500 1500 1501 1501 1502 1502 1502 1502 1502 1502 1502 1502
1479 1483 1495 1503 1503 1504 1487 1476 1475 1479 1486 1478 1478 1479 1480 1481 1487 1485 1483 1483 1484 1486 1488 1489 1491 1493 1494 1494 1495 1496 1496 1496 1497 1497 1498 1498 1499 1499 1500 1499 1499 1499 1499 1499
1487 1491 1496 1500 1500 1493 1480 1475 1475 1488 1486 1476 1476 1477 1479 1479 1480 1481 1481 1482 1483 1485 1487 1488 1489 1491 1492 1493 1493 1493 1494 1494 1494 1495 1495 1496 1496 1496 1497 1497 1497 1496 1496 1496
1488 1492 1496 1499 1499 1494 1476 1475 1479 1479 1474 1474 1475 1476 1477 1477 1478 1479 1479 1480 1482 1483 1485 1487 1488 1489 1490 1491 1491 1491 1491 1492 1492 1492 1492 1493 1493 1493 1493 1493 1493 1493 1493 1493
1485 1485 1487 1488 1487 1477 1474 1474 1473 1473 1473 1473 1474 1474 1475 1476 1477 1478 1479 1480 1481 1482 1484 1485 1487 1487 1488 1489 1489 1489 1489 1489 1489 1489 1489 1489 1489 1489 1490 1490 1490 1490 1489 1489
1481 1480 1482 1483 1478 1475 1473 1472 1472 1472 1472 1473 1473 1473 1474 1474 1476 1477 1478 1480 1480 1482 1483 1484 1485 1485 1486 1486 1487 1487 1487 1487 1486 1486 1485 1485 1485 1486 1486 1487 1487 1487 1486 1487
1478 1479 1481 1481 1477 1474 1472 1472 1472 1472 1472 1472 1472 1473 1473 1473 1475 1476 1477 1479 1480 1481 1482 1483 1483 1484 1484 1484 1485 1485 1485 1484 1483 1482 1481 1481 1482 1482 1482 1483 1483 1483 1484 1484
1475 1476 1479 1478 1473 1474 1472 1472 1472 1472 1471 1471 1471 1472 1473 1473 1474 1476 1477 1478 1479 1481 1481 1481 1482 1483 1483 1483 1482 1483 1482 1482 1480 1479 1478 1477 1478 1478 1479 1479 1479 1479 1480 1480